This is the latest recevied weather packets stored in our database for station/object W4FXD. If no packets are shown the sender has not sent any weather packets the latest 10 day(s).
| Time | Temp. | Humidity | Pressure | Rain* | Wind** | Luminosity | Snow |
|---|---|---|---|---|---|---|---|
| 1778100734 | 19.44° C | 98% | 1011 hPa | 1.27 mm | - | 77 W/m² | - |
| 1778100432 | 19.44° C | 98% | 1011.2 hPa | 1.27 mm | - | 139 W/m² | - |
| 1778100129 | 19.44° C | 97% | 1011 hPa | 1.78 mm | - | 184 W/m² | - |
| 1778099827 | 19.44° C | 97% | 1011.1 hPa | 1.78 mm | - | 70 W/m² | - |
| 1778099524 | 20° C | 96% | 1010.8 hPa | 0 mm | - | 88 W/m² | - |
| 1778099222 | 20° C | 96% | 1011.5 hPa | 0 mm | - | 130 W/m² | - |
| 1778098917 | 20° C | 96% | 1011.6 hPa | 0 mm | - | 132 W/m² | - |
| 1778098615 | 20° C | 96% | 1011.6 hPa | 0 mm | - | 119 W/m² | - |
| 1778098311 | 20° C | 95% | 1012 hPa | 0 mm | - | 117 W/m² | - |
| 1778098008 | 20° C | 95% | 1012.2 hPa | 0 mm | - | 134 W/m² | - |
| 1778097704 | 20° C | 95% | 1012.2 hPa | 0 mm | - | 123 W/m² | - |
| 1778097401 | 20° C | 95% | 1012.2 hPa | 0 mm | - | 81 W/m² | - |
| 1778097097 | 20° C | 94% | 1012.9 hPa | 0 mm | - | 117 W/m² | - |
| 1778096795 | 20° C | 94% | 1012.6 hPa | 0 mm | - | 117 W/m² | - |
| 1778096491 | 20° C | 94% | 1012.9 hPa | 0 mm | - | 160 W/m² | - |
| 1778096189 | 20° C | 94% | 1012.7 hPa | 0 mm | - | 126 W/m² | - |
| 1778095886 | 20° C | 94% | 1013 hPa | 0 mm | - | 80 W/m² | - |
| 1778095583 | 20° C | 94% | 1012.9 hPa | 0 mm | - | 78 W/m² | - |
| 1778095278 | 20° C | 94% | 1012.7 hPa | 0 mm | - | 67 W/m² | - |
| 1778094976 | 20° C | 93% | 1012.3 hPa | 0 mm | - | 94 W/m² | - |
| 1778094671 | 20° C | 93% | 1011.9 hPa | 0 mm | - | 159 W/m² | - |
| 1778094369 | 20° C | 92% | 1012.1 hPa | 0 mm | - | 154 W/m² | - |
| 1778094066 | 20.56° C | 91% | 1012 hPa | 0 mm | - | 173 W/m² | - |
| 1778093763 | 20.56° C | 90% | 1012.4 hPa | 0 mm | - | 146 W/m² | - |
| 1778093459 | 20.56° C | 90% | 1013.1 hPa | 0 mm | - | 116 W/m² | - |
* Rain latest hour (hover to see other rain measurements)
** Current wind speed in m/s (hover to see current wind gust speed)